Powrót do katalogu

SL-12 R/B

AUX MOTOR

AktywnyHEO
NORAD 28632·ROCKET BODY·🇷🇺 Russia

Wystrzelony Mar 29, 2005 z Baikonur Cosmodrome

Loading…

Następne Przeloty (najbliższe 24 godziny)

TLE

ŚwieżeSource: Space-Track

Epoka: Sep 14, 2026, 03:40 UTC

1 28632U 05010D   26257.15281662  .00010786  00000-0  10062-2 0  9993
2 28632  47.3256 340.1666 4587970 283.8360  30.6761  6.36120245259161

Śledź SL-12 R/B w czasie rzeczywistym z AllMySat

Download on the App Store